FW4441 Weather Reports


time (UTC)temp
C
wind
direction
speed
KPH
gust
KPH
rain 1hr
cm
rain 24hr
cm
rain mn
cm
humidity
%
barometer
mb
20260903110031 8 65 1.6 4.8 0.00 0.99 0.00 97 1008.4
20260903104531 8 22 0.0 0.0 0.00 0.99 0.00 97 1008.3
20260903103028 9 22 0.0 6.4 0.00 0.99 0.00 97 1008.1
20260903101530 9 38 3.2 6.4 0.00 0.99 0.00 97 1008.1
20260903093030 10 133 0.0 3.2 0.00 0.99 0.00 98 1008.1
20260903090031 9 233 0.0 3.2 0.00 0.99 0.00 97 1008.1
20260903084528 10 241 1.6 8.0 0.00 0.99 0.00 97 1008.1
20260903083031 10 90 1.6 6.4 0.00 0.99 0.00 97 1008.0
20260903081530 10 129 1.6 4.8 0.00 0.99 0.00 97 1007.9
20260903080030 9 101 0.0 6.4 0.00 0.99 0.00 97 1008.0
20260903074529 9 130 3.2 6.4 0.00 0.99 0.00 97 1007.8
20260903073144 9 155 3.2 6.4 0.00 0.99 0.00 97 1007.5
20260903071528 10 167 3.2 9.7 0.00 0.99 0.00 97 1007.5
20260903070029 10 114 1.6 6.4 0.00 0.99 0.00 97 1007.6
20260903064534 10 196 0.0 6.4 0.00 0.99 0.99 97 1007.6
20260903063028 10 199 0.0 3.2 0.00 0.99 0.99 97 1007.6
20260903060026 10 114 1.6 6.4 0.00 0.99 0.99 96 1007.7
20260903054609 10 290 0.0 6.4 0.00 0.99 0.99 96 1007.6
20260903053029 11 25 1.6 6.4 0.03 0.99 0.99 96 1007.5
20260903051603 11 163 1.6 9.7 0.03 0.99 0.99 96 1007.4
20260903050031 11 166 3.2 6.4 0.03 0.99 0.99 96 1007.3
20260903044530 12 124 1.6 6.4 0.03 0.99 0.97 96 1007.2
20260903043106 12 106 0.0 3.2 0.00 0.97 0.97 96 1007.1
20260903041529 12 113 0.0 4.8 0.00 0.97 0.97 96 1006.8
20260903040030 12 90 1.6 4.8 0.00 0.97 0.97 96 1006.5
20260903034646 12 32 0.0 4.8 0.00 0.97 0.97 95 1006.4
20260903033040 12 22 0.0 1.6 0.13 0.97 0.97 95 1006.3
20260903031614 12 23 1.6 6.4 0.23 0.97 0.97 95 1006.3
20260903030032 13 23 6.4 11.3 0.46 0.97 0.97 95 1006.0
20260903024532 13 360 3.2 8.0 0.56 0.97 0.84 95 1006.1
20260903021643 13 300 3.2 12.9 0.33 0.71 0.51 95 1005.9
20260903020031 14 280 1.6 6.4 0.13 0.51 0.41 94 1005.6
20260903014531 14 16 1.6 6.4 0.05 0.41 0.41 94 1005.4
20260903013037 14 310 0.0 4.8 0.08 0.41 0.41 94 1005.5
20260903011531 14 18 0.0 4.8 0.10 0.41 0.38 94 1005.4
20260903010110 14 13 1.6 6.4 0.10 0.38 0.36 93 1005.5
20260903004531 14 352 3.2 4.8 0.08 0.36 0.33 93 1005.6
20260903003033 14 337 3.2 4.8 0.08 0.33 0.30 93 1005.7
20260903001530 14 326 3.2 6.4 0.05 0.30 0.28 93 1005.6
20260903000031 14 306 3.2 8.0 0.03 0.28 0.28 92 1005.5
20260902234609 15 320 3.2 8.0 0.03 0.28 0.25 92 1005.5
20260902233031 15 322 4.8 9.7 0.00 0.25 0.25 92 1005.6
20260902230032 15 297 4.8 9.7 0.03 0.25 0.25 92 1005.8
20260902224608 15 307 4.8 9.7 0.05 0.25 0.25 92 1005.6
20260902223030 15 330 3.2 8.0 0.08 0.25 0.23 91 1005.7
20260902220029 15 290 0.0 4.8 0.10 0.23 0.20 91 1005.4
20260902214539 15 263 3.2 9.7 0.10 0.20 0.18 90 1005.3
20260902213032 15 266 1.6 8.0 0.10 0.18 0.15 90 1005.3
20260902211530 15 283 1.6 11.3 0.10 0.15 0.13 89 1005.3
20260902210033 15 338 3.2 6.4 0.08 0.13 0.10 88 1005.4
20260902204529 15 1 1.6 8.0 0.05 0.13 0.08 87 1005.6
20260902201530 15 319 4.8 9.7 0.05 0.08 0.05 84 1005.6
20260902200030 15 328 4.8 11.3 0.05 0.08 0.05 81 1005.5
20260902194608 16 320 1.6 9.7 0.05 0.08 0.03 78 1005.6
20260902190030 18 200 4.8 8.0 0.00 0.03 0.00 68 1005.3
20260902184530 18 192 4.8 8.0 0.00 0.03 0.00 65 1005.2
20260902183032 19 215 3.2 8.0 0.00 0.03 0.00 64 1005.1
20260902181544 18 203 0.0 6.4 0.00 0.03 0.00 65 1005.2
20260902180107 18 216 1.6 6.4 0.00 0.03 0.00 64 1005.3
20260902174530 20 261 3.2 9.7 0.00 0.03 0.00 62 1005.3
20260902173032 20 265 4.8 12.9 0.00 0.03 0.00 63 1005.3
20260902171529 20 260 6.4 14.5 0.00 0.03 0.00 61 1005.5
20260902170030 20 278 3.2 9.7 0.00 0.03 0.00 63 1005.6
20260902164529 19 262 1.6 6.4 0.00 0.03 0.00 68 1005.9
20260902163030 16 351 1.6 4.8 0.00 0.03 0.00 72 1006.2
20260902161531 16 286 0.0 3.2 0.00 0.03 0.00 71 1006.4
20260902160029 17 275 0.0 4.8 0.00 0.03 0.00 71 1006.6
20260902154529 16 38 3.2 9.7 0.00 0.03 0.00 74 1006.7
20260902153109 16 21 4.8 9.7 0.00 0.03 0.00 78 1006.8
20260902150029 14 32 8.0 17.7 0.00 0.03 0.00 80 1007.1
20260902144608 13 16 9.7 17.7 0.00 0.03 0.00 82 1007.1
20260902141606 13 335 6.4 12.9 0.00 0.03 0.00 82 1007.4
20260902140031 12 341 6.4 11.3 0.00 0.03 0.00 82 1007.4
20260902134530 12 15 4.8 14.5 0.00 0.03 0.00 82 1007.4
20260902133034 12 68 3.2 6.4 0.00 0.03 0.00 82 1007.6
20260902131534 12 56 4.8 11.3 0.00 0.03 0.00 83 1007.6
20260902130028 12 47 3.2 9.7 0.00 0.03 0.00 83 1007.5
20260902124532 12 56 1.6 4.8 0.00 0.03 0.00 82 1007.5
20260902123109 12 110 1.6 4.8 0.00 0.03 0.00 82 1007.7
20260902120106 12 298 1.6 14.5 0.00 0.03 0.00 80 1007.7
20260902114530 13 255 6.4 17.7 0.00 0.03 0.00 80 1007.8
20260902113034 13 250 11.3 22.5 0.00 0.03 0.00 80 1007.7